Regional Weather Roundup
Issued by NWS Albany, NY

Home | Current Version | Previous Version | Text Only | Print | Product List | Glossary On
Versions: 1 2 3 4 5 6 7 8 9 10 11 12 13 14 15 16 17 18 19 20 21 22 23 24 25 26
000
ASUS41 KALY 271110
RWRALY

NEW YORK STATE HOURLY WEATHER ROUNDUP
NATIONAL WEATHER SERVICE ALBANY NY
700 AM EDT THU JUL 27 2017

NOTE: "FAIR" INDICATES FEW OR NO CLOUDS BELOW 12,000 FEET WITH NO
SIGNIFICANT WEATHER AND/OR NO OBSTRUCTIONS TO VISIBILITY.

NYZ032-033-038>043-046>054-057>066-NYZ062>081-082-084-271200-
EAST


CITY           SKY/WX    TMP DP  RH WIND       PRES   REMARKS
ALBANY         LGT RAIN  64  57  78 S8        30.00F
GLENS FALLS    CLOUDY    62  58  86 SW7       29.98F
POUGHKEEPSIE   CLOUDY    62  58  86 SE5       30.04F
NEWBURGH       PTSUNNY   61  61 100 CALM      30.07F
MONTGOMERY     CLOUDY    61  59  93 CALM      30.05F
WHITE PLAINS   CLOUDY    63  59  87 CALM      30.06S
ISLIP          PTSUNNY   65  61  87 NW3       30.06S
NEW YORK CITY  PTSUNNY   68  61  78 SW6       30.05F
CENTRAL PARK   CLOUDY    67  61  81 CALM      30.09S
$$

NYZ005>009-017-018-044>046-055-056-271200-
CENTRAL


CITY           SKY/WX    TMP DP  RH WIND       PRES   REMARKS
FULTON         LGT RAIN  66  64  93 S6        29.96S
SYRACUSE       LGT RAIN  66  63  90 S8        29.97S
ROME           CLOUDY    66  63  90 E3        29.98S
ELMIRA         PTSUNNY   63  62  97 CALM      30.01S
BINGHAMTON     CLOUDY    62  61  96 SW3       30.04S
$$

NYZ026>034-041>043-087-271200-
NORTH


CITY           SKY/WX    TMP DP  RH WIND       PRES   REMARKS
WATERTOWN      LGT RAIN  67  66  97 SW9       29.93S FOG
FORT DRUM      NOT AVBL
OGDENSBURG     CLOUDY    66  65  94 SW5       29.90F
MASSENA        CLOUDY    66  65  96 SW7       29.90F
SARANAC LAKE   CLOUDY    61  61 100 SW6       29.95F
PLATTSBURGH    CLOUDY    65  63  93 S3        29.91F
$$

NYZ001>004-010>016-019>021-085-271200-
WEST


CITY           SKY/WX    TMP DP  RH WIND       PRES   REMARKS
NIAGARA FALLS  CLOUDY    68  63  84 W3        29.97S
BUFFALO        LGT RAIN  67  65  93 S3        29.98S
DUNKIRK        CLOUDY    68  63  84 S5        29.99S
JAMESTOWN      CLOUDY    63  57  82 S5        30.03S
WELLSVILLE     CLOUDY    64  60  87 SW5       30.07R
ROCHESTER      LGT RAIN  67  65  93 SW6       29.97S FOG
PENN YAN       CLOUDY    66  62  87 SW6       30.00F
$$

             KEY
       WCI = WIND CHILL INDEX
       VSB = VISIBILITY
       HX  = HEAT INDEX
$$




USA.gov is the U.S. government's official web portal to all federal, state and local government web resources and services.